WS6A-13 Weather Reports


time (UTC)temp
C
wind
direction
speed
KPH
gust
KPH
rain 1hr
cm
rain 24hr
cm
rain mn
cm
humidity
%
barometer
mb
20260901131503 24 78 0.0 0.0 0.00 0.00 0.00 91 1016.4
20260901130004 23 78 0.0 0.0 0.00 0.00 0.00 91 1016.5
20260901124505 23 78 0.0 0.0 0.00 0.00 0.00 92 1016.5
20260901123004 22 78 0.0 0.0 0.00 0.00 0.00 94 1016.4
20260901120004 22 78 0.0 0.0 0.00 0.00 0.00 94 1016.3
20260901114503 22 78 0.0 0.0 0.00 0.00 0.00 94 1016.2
20260901113004 21 78 0.0 0.0 0.00 0.00 0.00 94 1015.8
20260901111504 21 78 0.0 0.0 0.00 0.00 0.00 93 1015.6
20260901110004 21 78 0.0 0.0 0.00 0.00 0.00 93 1015.6
20260901104504 21 78 0.0 0.0 0.00 0.00 0.00 93 1015.5
20260901103004 21 78 0.0 0.0 0.00 0.00 0.00 93 1015.4
20260901101504 21 78 0.0 0.0 0.00 0.00 0.00 93 1015.3
20260901100004 21 78 0.0 0.0 0.00 0.00 0.00 93 1015.2
20260901094504 21 78 0.0 0.0 0.00 0.00 0.00 93 1015.2
20260901093004 22 78 0.0 0.0 0.00 0.00 0.00 92 1015.1
20260901091504 22 78 0.0 0.0 0.00 0.00 0.00 93 1015.0
20260901083004 22 78 0.0 0.0 0.00 0.00 0.00 91 1014.8
20260901081504 22 78 0.0 0.0 0.00 0.00 0.00 91 1014.9
20260901080004 22 78 0.0 0.0 0.00 0.00 0.00 91 1014.8
20260901074504 22 78 0.0 0.0 0.00 0.00 0.00 91 1014.9
20260901073004 22 78 0.0 0.0 0.00 0.00 0.00 91 1014.8
20260901071504 23 78 0.0 0.0 0.00 0.00 0.00 91 1014.8
20260901070003 23 78 0.0 0.0 0.00 0.00 0.00 90 1014.9
20260901063004 23 78 0.0 0.0 0.00 0.00 0.00 90 1014.6
20260901061504 23 78 0.0 0.0 0.00 0.00 0.00 90 1014.5
20260901060004 23 78 0.0 0.0 0.00 0.00 0.00 89 1014.3
20260901054504 23 78 0.0 0.0 0.00 0.00 0.00 89 1014.5
20260901053004 23 78 0.0 0.0 0.00 0.00 0.00 89 1014.7
20260901050004 23 78 0.0 0.0 0.00 0.00 0.00 89 1014.6
20260901044506 23 78 0.0 0.0 0.00 0.00 0.00 90 1014.6
20260901041504 23 78 0.0 0.0 0.00 0.00 0.00 89 1015.2
20260901040005 23 78 0.0 0.0 0.00 0.00 0.00 89 1015.3
20260901034503 23 78 0.0 0.0 0.00 0.00 0.00 89 1015.4
20260901033005 23 78 0.0 0.0 0.00 0.00 0.00 89 1015.4
20260901030004 23 78 0.0 0.0 0.00 0.00 0.00 88 1015.6
20260901024504 23 78 0.0 0.0 0.00 0.00 0.00 88 1015.6
20260901023004 24 78 0.0 0.0 0.00 0.00 0.00 87 1015.6
20260901021504 24 78 0.0 0.0 0.00 0.00 0.00 87 1015.7
20260901020004 25 78 0.0 0.0 0.00 0.00 0.00 86 1015.7
20260901014504 25 78 0.0 0.0 0.00 0.00 0.00 86 1015.7
20260901013004 25 78 0.0 0.0 0.00 0.00 0.00 85 1015.6
20260901011504 25 78 0.0 0.0 0.00 0.00 0.00 84 1015.4
20260901010004 26 78 0.0 0.0 0.00 0.00 0.00 83 1015.2
20260901004504 26 78 0.0 0.0 0.00 0.00 0.00 82 1015.1
20260901001504 27 78 0.0 0.0 0.00 0.00 0.00 79 1014.9
20260901000004 28 78 0.0 0.0 0.00 0.00 0.00 78 1014.8
20260831234504 28 78 0.0 0.0 0.00 0.00 0.00 75 1014.8
20260831231504 29 78 0.0 0.0 0.00 0.00 0.00 74 1014.2
20260831230003 29 78 0.0 0.0 0.00 0.00 0.00 74 1014.2
20260831224504 30 78 0.0 0.0 0.00 0.00 0.00 72 1014.0
20260831221504 30 231 0.0 0.0 0.00 0.00 0.00 68 1013.9
20260831220004 31 159 0.0 0.0 0.00 0.00 0.00 66 1013.9
20260831214504 31 159 0.0 1.6 0.00 0.00 0.00 67 1014.5
20260831213004 31 252 0.0 4.8 0.00 0.00 0.00 64 1014.6
20260831211504 31 252 0.0 1.6 0.00 0.00 0.00 67 1014.8
20260831210013 31 236 0.0 9.7 0.00 0.00 0.00 64 1014.9
20260831204503 32 100 0.0 3.2 0.00 0.00 0.00 64 1015.2
20260831203004 32 74 1.6 8.0 0.00 0.00 0.00 62 1015.4
20260831201504 32 60 0.0 4.8 0.00 0.00 0.00 62 1015.5
20260831200010 32 74 0.0 3.2 0.00 0.00 0.00 62 1015.8
20260831194504 32 107 0.0 8.0 0.00 0.00 0.00 68 1016.0
20260831193004 32 107 0.0 4.8 0.00 0.00 0.00 67 1016.1
20260831191503 31 46 1.6 4.8 0.00 0.00 0.00 71 1016.3
20260831190004 30 138 0.0 1.6 0.00 0.00 0.00 70 1016.4
20260831183004 31 267 0.0 4.8 0.00 0.00 0.00 71 1016.6
20260831180004 31 79 0.0 9.7 0.00 0.00 0.00 71 1016.9
20260831173004 31 121 0.0 9.7 0.00 0.00 0.00 73 1017.1
20260831171504 30 61 0.0 0.0 0.00 0.00 0.00 76 1017.0
20260831170004 30 60 0.0 9.7 0.00 0.00 0.00 73 1017.2
20260831164504 30 74 0.0 8.0 0.00 0.00 0.00 73 1017.4
20260831161504 29 295 0.0 3.2 0.00 0.00 0.00 75 1017.5
20260831160004 28 132 0.0 1.6 0.00 0.00 0.00 79 1017.5
20260831154504 28 157 0.0 0.0 0.00 0.00 0.00 78 1017.4
20260831153004 28 138 0.0 0.0 0.00 0.00 0.00 80 1017.4
20260831151505 27 138 0.0 0.0 0.00 0.00 0.00 81 1017.4
20260831150004 27 138 0.0 0.0 0.00 0.00 0.00 79 1017.2
20260831144504 27 138 0.0 0.0 0.00 0.00 0.00 80 1017.1
20260831143004 26 136 0.0 0.0 0.00 0.00 0.00 80 1017.1
20260831133004 24 136 0.0 0.0 0.00 0.00 0.00 87 1017.1